User: anonymous   Login
Location: Peebles
(55.6412°N, 3.1714°W)
Time: 06:33:06
(UTC+00:00)
Language:

BEESAT 2 - Orbit

View from above orbital plane
View from above orbital plane
View from above satellite
View from above satellite

Ground track
Ground track

The orbit data is extracted from the following two-line orbital elements,

1 39136U 13015G   22333.29665335  .00014477  00000-0  54988-3 0  9994
2 39136  64.8734 288.6811 0025029 291.3190  68.5269 15.26746306531042
Epoch (UTC): 29 November 2022 07:07:10
Eccentricity: 0.0025029
inclination: 64.8734°
perigee height: 468 km
apogee height: 503 km
right ascension of ascending node: 288.6811°
argument of perigee: 291.3190°
revolutions per day: 15.26746306
mean anomaly at epoch: 68.5269°
orbit number at epoch: 53104

The dashed part of the orbit path shows where the satellite is in the earth's shadow,  

DLR